Home   Weather   Rohrbach   Past weeks

Flag for Austria Past Weather in Rohrbach, Upper Austria, Austria — Yesterday and Last 2 Weeks

Now
58 °F

Cool.


Feels Like: 59 °F
Forecast: 51 / 56 °F
Wind: 3 mph from West

Location: Rohrbach

Current Time: Jul 25, 2017 at 1:05:51 pm

Latest Report: Jul 25, 2017 at 12:00 pm


Visibility: N/A

Pressure: 29.73 "Hg (27.67 "Hg at 605m altitude)

Humidity: 73%

Dew Point: 50 °F

Location of RohrbachLocation

Past Weather in Rohrbach — Graph

°F

Rohrbach Temperature Yesterday

Maximum temperature yesterday: 63 °F (at 12:00 am)
Minimum temperature yesterday: 55 °F (at 11:00 pm)
Average temperature yesterday: 59 °F

High & Low Weather Summary for the Past Weeks

 TemperatureHumidityPressure
High84 °F (Jul 19, 4:00 pm)97% (Jul 24, 6:00 am)30.29 "Hg (Jul 24, 6:00 am)
Low48 °F (Jul 16, 5:00 am)36% (Jul 18, 7:00 pm)29.72 "Hg (Jul 24, 3:00 pm)
Average64 °F71%29.99 "Hg
* Reported Jul 10 11:00 am — Jul 25 11:00 am, Rohrbach. Weather by CustomWeather, © 2017

Note: Actual official high and low records may vary slightly from our data, if they occured in-between our weather recording intervals... More about our weather records

Advertising

Rohrbach Weather History for the Previous 24 Hours

Scroll right to see more
 ConditionsComfort  
Time TempWeatherWind HumidityBarometerVisibility
11:00 am
Tue, Jul 25
55 °FCool.3 mph79%29.75 "HgN/A
10:00 am54 °FCool.3 mph81%29.76 "HgN/A
9:00 am54 °FCool.5 mph81%29.76 "HgN/A
8:00 am53 °FCool.2 mph83%29.78 "HgN/A
7:00 am52 °FCool.2 mph86%29.78 "HgN/A
6:00 am52 °FPassing clouds.3 mph87%29.78 "Hg2 mi
5:00 am52 °FCool.3 mph87%29.78 "HgN/A
4:00 am53 °FCool.2 mph86%29.79 "HgN/A
3:00 am54 °FCool.5 mph86%29.80 "HgN/A
2:00 am55 °FCool.5 mph86%29.79 "HgN/A
1:00 am56 °FCool.2 mph88%29.79 "HgN/A
12:00 am56 °FCool.1 mph92%29.80 "HgN/A
11:00 pm
Mon, Jul 24
55 °FCool.1 mph91%29.80 "HgN/A
10:00 pm55 °FCool.2 mph90%29.81 "HgN/A
9:00 pm55 °FCool.2 mph90%29.80 "HgN/A
8:00 pm55 °FCool.5 mph91%29.79 "HgN/A
7:00 pm58 °FFog.5 mph89%29.76 "HgN/A
6:00 pm60 °FFog.2 mph92%29.74 "HgN/A
5:00 pm60 °FCool.2 mph91%29.74 "HgN/A
4:00 pm61 °FSprinkles. Cloudy.2 mph92%29.73 "HgN/A
3:00 pm63 °FMild.1 mph88%29.72 "HgN/A
2:00 pm62 °FPassing clouds.14 mph92%29.75 "Hg12 mi
1:00 pm62 °FFog.1 mph88%29.76 "HgN/A
Weather by CustomWeather, © 2017

See weather overviewHow to use our weather pages